Flag for Ireland Weather past 2 weeks in Dublin, Ireland

55 °F

Partly cloudy.

Feels Like: 51 °F
Forecast: 51 / 62 °F
Wind: 18 mph from East

Location: Dublin Airport

Current Time: Oct 5, 2015 at 5:10:21 AM

Latest Report: Oct 5, 2015 at 4:30 AM

Visibility: N/A

Pressure: 29.47 "Hg

Humidity: 82%

Dew point: 50 °F

Location of DublinLocation

Historic Weather in Dublin — Graph


Dublin temperature yesterday

Maximum temperature yesterday: 57 °F (at 1:30 PM)
Minimum temperature yesterday: 34 °F (at 6:30 AM)
Average temperature yesterday: 50 °F

Past Weeks' High & Low Weather Summary

High63 °F (Sep 20, 1:30 PM)100% (Sep 21, 3:00 AM)30.60 "Hg (Sep 21, 3:00 AM)
Low34 °F (Oct 4, 6:30 AM)59% (Sep 22, 3:30 PM)29.50 "Hg (Oct 5, 4:00 AM)
Average53 °F84%30.16 "Hg
* Reported Sep 20 4:00 AM — Oct 5 4:00 AM, Dublin, Weather by CustomWeather, © 2015

Note: Actual official high and low records may vary slightly from our data, if they occured in-between our weather recording intervals... More about our weather records


Dublin weather history for previous 24 hours

Time TempWeatherWind HumidityBarometerVisibility
4:00 AM
Mon, Oct 5
55 °FPassing clouds.16 mph82%29.50 "HgN/A
3:30 AM55 °FPassing clouds.14 mph88%29.53 "HgN/A
3:00 AM54 °FPassing clouds.9 mph94%29.56 "HgN/A
2:30 AM54 °FLight rain. Passing clouds.12 mph94%29.59 "HgN/A
2:00 AM54 °FPassing clouds.12 mph88%29.62 "HgN/A
1:30 AM55 °FPartly cloudy.14 mph82%29.62 "HgN/A
1:00 AM55 °FPassing clouds.16 mph82%29.62 "HgN/A
12:30 AM55 °FPassing clouds.18 mph82%29.62 "HgN/A
12:00 AM55 °FPassing clouds.20 mph82%29.65 "HgN/A
11:30 PM
Sun, Oct 4
55 °FPassing clouds.17 mph82%29.65 "HgN/A
11:00 PM55 °FPassing clouds.16 mph88%29.68 "HgN/A
10:30 PM55 °FPassing clouds.15 mph82%29.68 "HgN/A
10:00 PM55 °FPassing clouds.16 mph82%29.68 "HgN/A
9:30 PM54 °FPassing clouds.14 mph88%29.71 "HgN/A
9:00 PM55 °FPassing clouds.13 mph82%29.71 "HgN/A
8:30 PM55 °FPassing clouds.10 mph82%29.71 "HgN/A
8:00 PM55 °FPassing clouds.13 mph82%29.71 "HgN/A
7:30 PM55 °FBroken clouds.13 mph82%29.74 "HgN/A
7:00 PM54 °FBroken clouds.13 mph82%29.74 "HgN/A
6:30 PM55 °FBroken clouds.13 mph82%29.74 "HgN/A
6:00 PM55 °FBroken clouds.14 mph82%29.77 "HgN/A
5:30 PM55 °FBroken clouds.15 mph77%29.77 "HgN/A
5:00 PM55 °FPartly sunny.15 mph77%29.80 "HgN/A
4:30 PM55 °FPartly sunny.14 mph72%29.80 "HgN/A
4:00 PM55 °FPartly sunny.14 mph77%29.80 "HgN/A
3:30 PM55 °FPartly sunny.14 mph77%29.83 "HgN/A
3:00 PM55 °FPartly sunny.16 mph77%29.83 "HgN/A
2:30 PM55 °FPartly sunny.17 mph72%29.83 "HgN/A
2:00 PM57 °FPartly sunny.15 mph72%29.83 "HgN/A
1:30 PM57 °FBroken clouds.17 mph67%29.86 "HgN/A
1:00 PM55 °FBroken clouds.16 mph67%29.86 "HgN/A
12:30 PM55 °FPartly sunny.16 mph67%29.86 "HgN/A
12:00 PM54 °FPartly sunny.14 mph72%29.89 "HgN/A
11:30 AM55 °FBroken clouds.12 mph67%29.86 "HgN/A
11:00 AM55 °FPassing clouds.13 mph67%29.89 "HgN/A
10:30 AM54 °FPassing clouds.12 mph72%29.89 "HgN/A
10:00 AM54 °FPassing clouds.9 mph72%29.89 "HgN/A
9:30 AM52 °FPassing clouds.7 mph82%29.89 "HgN/A
9:00 AM48 °FPassing clouds.6 mph87%29.89 "HgN/A
8:30 AM45 °FPassing clouds.6 mph93%29.89 "HgN/A
8:00 AM43 °FPassing clouds.7 mph100%29.89 "HgN/A
7:30 AM39 °FPassing clouds.7 mph100%29.89 "HgN/A
7:00 AM39 °FPassing clouds.5 mph93%29.89 "HgN/A
6:30 AM34 °FClear.2 mph100%29.92 "Hg10 mi
6:00 AM36 °FClear.1 mph93%29.92 "Hg10 mi
Weather by CustomWeather, © 2015

See weather overviewHow to use our weather pages